Date String (YYYY-MM-DD hh:mm:ss) UTC,Instrument flags,Ambient pressure (hPa),Sample flow (lpm),Bypass flow (lpm),Sample temperature (°C),Ambient temperature (°C),ASC tube jacket temperature (°C),LED temperature (°C),Box temperature (°C),Sample RH (%),Span deviation,Mass concentration (μg/m³),Mass concentration (μg/m³),Mass concentration (μg/m³)
DateTimeUTC,F1_M11,P_M11,Q1_M11,Q2_M11,T1_M11,T2_M11,T3_M11,T4_M11,T5_M11,U1_M11,ZSPAN_M11,X0_M11,X2_M11,X1_M11
2021-10-04 14:00:00,,0833.0,4.99,0.00,29.7,28.9,00.0,38.7,31.5,11.9,0000.0,0006.33,0003.62,0003.28
2021-10-04 14:01:00,,0833.0,5.01,0.00,29.7,29.0,00.0,38.8,31.5,12.0,0000.0,0006.46,0003.61,0003.29
2021-10-04 14:02:00,,0833.0,4.99,0.00,29.8,29.0,00.0,38.8,31.5,11.9,0000.0,0007.10,0003.60,0003.29
2021-10-04 14:03:00,,0833.0,4.98,0.00,29.8,29.0,00.0,38.8,31.6,11.6,0000.0,0006.95,0003.60,0003.29
2021-10-04 14:04:00,,0833.0,5.00,0.00,29.8,29.0,00.0,38.8,31.6,11.6,0000.0,0007.86,0003.64,0003.30
2021-10-04 14:05:00,,0833.0,4.98,0.00,29.8,29.0,00.0,38.8,31.6,11.3,0000.0,0007.89,0003.64,0003.31
2021-10-04 14:06:00,,0833.1,4.99,0.00,29.8,29.0,00.0,38.8,31.6,11.5,0000.0,0007.93,0003.64,0003.30
2021-10-04 14:07:00,,0833.1,4.99,0.00,29.8,29.0,00.0,38.8,31.6,11.4,0000.0,0008.15,0003.64,0003.30
2021-10-04 14:08:00,,0833.0,5.00,0.00,29.8,29.0,00.0,38.9,31.6,11.3,0000.0,0008.34,0003.65,0003.30
2021-10-04 14:09:00,,0833.1,5.00,0.00,29.8,29.1,00.0,38.9,31.7,11.4,0000.0,0008.46,0003.66,0003.29
2021-10-04 14:10:00,,0833.0,5.02,0.00,29.9,29.1,00.0,38.9,31.7,11.1,0000.0,0008.65,0003.68,0003.28
2021-10-04 14:11:00,,0833.1,4.99,0.00,29.9,29.1,00.0,38.9,31.7,11.3,0000.0,0008.73,0003.70,0003.27
2021-10-04 14:12:00,,0833.0,5.01,0.00,29.9,29.1,00.0,38.9,31.7,11.5,0000.0,0008.74,0003.70,0003.25
2021-10-04 14:13:00,,0833.0,5.00,0.00,29.9,29.1,00.0,38.9,31.7,11.5,0000.0,0008.59,0003.69,0003.23
2021-10-04 14:14:00,,0833.1,4.99,0.00,29.9,29.1,00.0,38.9,31.7,11.2,0000.0,0008.86,0003.67,0003.22
2021-10-04 14:15:00,,0833.0,5.00,0.00,29.9,29.1,00.0,39.0,31.8,11.4,0000.0,0008.29,0003.67,0003.22
2021-10-04 14:16:00,,0833.1,5.01,0.00,29.9,29.1,00.0,39.0,31.7,11.3,0001.2,0008.17,0003.65,0003.21
2021-10-04 14:17:00,,0833.1,4.99,0.00,30.0,29.2,00.0,39.0,31.7,11.4,0001.3,0008.14,0003.67,0003.22
2021-10-04 14:18:00,,0833.1,4.99,0.00,30.0,29.2,00.0,39.0,31.7,11.3,0001.3,0008.62,0003.70,0003.22
2021-10-04 14:19:00,,0833.2,5.00,0.00,30.0,29.2,00.0,39.0,31.7,11.4,0000.9,0008.49,0003.71,0003.22
2021-10-04 14:20:00,,0833.1,5.01,0.00,30.0,29.2,00.0,39.0,31.8,11.3,-000.0,0008.44,0003.71,0003.21
2021-10-04 14:21:00,,0833.1,5.00,0.00,30.0,29.2,00.0,39.0,31.8,11.5,0000.5,0008.57,0003.71,0003.21
2021-10-04 14:22:00,,0833.1,5.01,0.00,30.0,29.2,00.0,39.1,31.8,11.2,0001.1,0009.13,0003.75,0003.22
2021-10-04 14:23:00,,0833.1,4.99,0.00,30.0,29.3,00.0,39.1,31.8,11.2,0001.4,0009.17,0003.77,0003.23
2021-10-04 14:24:00,,0833.1,5.00,0.00,30.0,29.3,00.0,39.1,31.9,11.4,0001.6,0009.01,0003.79,0003.23
2021-10-04 14:25:00,,0833.1,5.01,0.00,30.1,29.3,00.0,39.1,31.9,11.3,0001.6,0008.46,0003.82,0003.23
2021-10-04 14:26:00,,0833.1,5.00,0.00,30.1,29.3,00.0,39.1,31.9,11.3,0001.9,0008.49,0003.83,0003.23
2021-10-04 14:27:00,,0833.1,5.00,0.00,30.1,29.3,00.0,39.1,31.9,11.2,0001.8,0008.70,0003.86,0003.23
2021-10-04 14:28:00,,0833.1,4.99,0.00,30.1,29.3,00.0,39.1,31.9,11.3,0001.5,0009.05,0003.87,0003.23
2021-10-04 14:29:00,,0833.1,5.00,0.00,30.1,29.3,00.0,39.2,31.9,11.4,0000.0,0008.98,0003.86,0003.21
2021-10-04 14:30:00,,0833.1,5.00,0.00,30.1,29.3,00.0,39.2,31.9,11.6,0000.0,0009.76,0003.86,0003.21
2021-10-04 14:31:00,,0833.1,4.99,0.00,30.1,29.3,00.0,39.2,31.9,11.6,0000.0,0009.93,0003.86,0003.22
2021-10-04 14:32:00,,0833.1,5.01,0.00,30.2,29.4,00.0,39.2,32.0,11.7,0000.0,0009.95,0003.88,0003.22
2021-10-04 14:33:00,,0833.1,5.00,0.00,30.2,29.4,00.0,39.2,32.0,11.6,0000.3,0009.48,0003.85,0003.22
2021-10-04 14:34:00,,0833.1,5.00,0.00,30.2,29.4,00.0,39.2,32.0,11.7,0000.6,0009.37,0003.80,0003.21
2021-10-04 14:35:00,,0833.1,4.99,0.00,30.2,29.4,00.0,39.2,32.0,11.6,0000.3,0009.35,0003.78,0003.22
2021-10-04 14:36:00,,0833.2,4.99,0.00,30.2,29.4,00.0,39.2,32.0,11.7,0000.0,0009.28,0003.75,0003.21
2021-10-04 14:37:00,,0833.2,5.01,0.00,30.2,29.4,00.0,39.3,32.0,12.0,0000.0,0009.34,0003.76,0003.22
2021-10-04 14:38:00,,0833.1,5.00,0.00,30.2,29.4,00.0,39.3,32.0,11.7,0000.0,0009.91,0003.75,0003.22
2021-10-04 14:39:00,,0833.2,5.01,0.00,30.3,29.5,00.0,39.3,32.0,12.0,0000.0,0009.60,0003.73,0003.21
2021-10-04 14:40:00,,0833.2,4.99,0.00,30.3,29.5,00.0,39.3,32.0,11.8,0000.0,0009.36,0003.72,0003.22
2021-10-04 14:41:00,,0833.2,5.00,0.00,30.3,29.5,00.0,39.3,32.0,11.6,0001.0,0008.80,0003.72,0003.21
2021-10-04 14:42:00,,0833.1,5.00,0.00,30.3,29.5,00.0,39.3,32.1,11.8,0000.0,0008.97,0003.69,0003.20
2021-10-04 14:43:00,,0833.1,4.98,0.00,30.3,29.5,00.0,39.3,32.1,12.2,0000.0,0008.74,0003.67,0003.20
2021-10-04 14:44:00,,0833.1,5.00,0.00,30.3,29.6,00.0,39.4,32.1,12.1,0000.0,0009.01,0003.70,0003.20
2021-10-04 14:45:00,,0833.2,5.00,0.00,30.3,29.6,00.0,39.4,32.1,12.3,0000.0,0009.38,0003.70,0003.19
2021-10-04 14:46:00,,0833.2,5.00,0.00,30.4,29.6,00.0,39.4,32.1,12.1,0000.0,0009.40,0003.69,0003.18
2021-10-04 14:47:00,,0833.2,4.99,0.00,30.4,29.6,00.0,39.4,32.1,12.2,0000.0,0009.73,0003.73,0003.18
2021-10-04 14:48:00,,0833.2,5.00,0.00,30.4,29.6,00.0,39.4,32.2,11.8,0000.0,0009.76,0003.71,0003.17
2021-10-04 14:49:00,,0833.2,5.01,0.00,30.4,29.6,00.0,39.4,32.2,11.5,0000.0,0009.08,0003.73,0003.18
2021-10-04 14:50:00,,0833.2,4.99,0.00,30.4,29.7,00.0,39.4,32.2,11.6,0000.0,0009.23,0003.80,0003.19
2021-10-04 14:51:00,,0833.2,5.01,0.00,30.5,29.7,00.0,39.5,32.2,11.5,0000.0,0009.93,0003.83,0003.20
2021-10-04 14:52:00,,0833.1,5.00,0.00,30.5,29.7,00.0,39.5,32.3,11.4,0000.0,0009.81,0003.83,0003.20
2021-10-04 14:53:00,,0833.1,5.01,0.00,30.5,29.7,00.0,39.5,32.3,11.4,0000.0,0009.33,0003.87,0003.22
2021-10-04 14:54:00,,0833.2,5.00,0.00,30.5,29.8,00.0,39.5,32.3,11.9,0000.0,0009.29,0003.86,0003.23
2021-10-04 14:55:00,,0833.2,4.99,0.00,30.5,29.8,00.0,39.5,32.3,11.8,0000.0,0009.04,0003.83,0003.24
2021-10-04 14:56:00,,0833.2,5.01,0.00,30.5,29.8,00.0,39.5,32.3,11.9,0000.0,0008.57,0003.86,0003.26
2021-10-04 14:57:00,,0833.2,5.00,0.00,30.6,29.8,00.0,39.6,32.3,11.7,0000.0,0008.67,0003.88,0003.28
2021-10-04 14:58:00,,0833.2,4.99,0.00,30.6,29.8,00.0,39.6,32.3,12.1,0000.0,0008.61,0003.84,0003.29
2021-10-04 14:59:00,,0833.2,5.00,0.00,30.6,29.8,00.0,39.6,32.4,12.1,0000.0,0008.98,0003.84,0003.30
